User: anonymous   Login
Location: Caltech
(34.1382°N, 118.1253°W)
Time: 21:45:33
(UTC-07:00)
Language:

ASTRO E2 - Orbit

View from above orbital plane
View from above orbital plane
View from above satellite
View from above satellite

Ground track
Ground track

The orbit data is extracted from the following two-line orbital elements,

1 28773U 05025A   16145.61064351  .00001494  00000-0  74125-4 0  9993
2 28773  31.3833 294.2701 0004825  49.7990 310.3079 15.14749565598363
Epoch (UTC): 24 May 2016 14:39:19
Eccentricity: 0.0004825
inclination: 31.3833°
perigee height: 518 km
apogee height: 525 km
right ascension of ascending node: 294.2701°
argument of perigee: 49.7990°
revolutions per day: 15.14749565
mean anomaly at epoch: 310.3079°
orbit number at epoch: 59836

The dashed part of the orbit path shows where the satellite is in the earth's shadow,  

DLR